GFSSGP_700_temp_324.txt.gz
Temp
9 9 9 9 9 9 9 9 8 8 8 8 8 7 7 7 7 7 7 8 8 8 8 8 8 8 7 7 7 7 7 8 8 8 8 8 8 8 8 8 7 7 7 7 7 7 7 7 7
9 9 9 9 9 9 9 9 8 7 8 8 8 8 8 8 7 7 8 8 8 8 8 8 8 8 8 7 7 7 7 7 8 8 8 8 8 8 8 8 8 7 7 7 7 7 7 7 7
9 9 9 9 9 9 9 8 8 7 8 8 8 8 8 8 8 8 8 8 9 9 9 9 8 8 8 8 8 7 7 7 7 7 7 7 7 7 7 8 8 7 7 7 7 7 7 7 7
8 9 9 9 9 9 8 8 8 8 8 8 8 8 8 8 8 9 9 9 9 9 9 9 9 9 9 8 8 8 8 7 7 7 7 7 7 7 7 7 7 7 7 7 7 7 7 7 7
8 8 9 9 9 8 8 8 8 8 8 8 8 8 8 8 9 9 9 9 9 10 9 9 9 9 9 9 8 8 8 8 8 7 7 7 7 7 7 7 7 7 7 7 7 7 7 7 7
8 8 8 8 8 8 8 8 8 8 8 8 8 8 9 9 9 9 9 10 10 10 10 10 9 9 9 9 9 8 8 8 8 7 7 7 7 7 7 7 7 7 7 7 7 7 7 7 7
8 8 8 9 8 8 8 8 8 8 8 8 8 9 9 9 9 10 10 10 10 10 10 10 10 9 9 9 9 8 8 8 8 7 7 7 7 7 7 7 7 7 7 6 7 7 7 7 7
8 8 8 9 8 8 8 8 8 8 8 8 8 9 9 10 10 10 11 11 11 10 10 10 10 10 9 9 9 9 8 8 8 7 7 7 7 7 7 7 7 7 7 6 6 6 7 7 7
8 8 8 8 8 8 8 8 8 8 8 8 9 10 10 10 11 11 11 11 11 11 11 10 10 10 9 9 9 8 8 8 8 8 7 7 7 7 7 7 6 6 7 6 6 6 6 6 7
8 8 8 8 8 7 8 8 8 8 8 9 10 11 11 11 11 11 11 11 11 11 11 10 10 10 9 9 9 9 8 8 8 8 8 8 7 7 7 7 6 6 6 6 6 6 6 6 6
9 8 8 8 8 8 8 8 8 8 9 10 11 11 11 12 11 12 12 12 11 11 11 11 10 10 10 9 9 9 8 8 8 8 8 7 7 7 7 7 7 7 7 6 6 6 6 6 6
8 8 8 8 9 9 9 8 9 9 9 10 11 12 12 12 12 12 12 12 11 11 11 10 10 10 10 9 9 8 8 8 8 8 7 7 7 7 7 7 7 7 7 7 7 6 6 6 5
9 9 9 9 9 9 9 9 9 9 10 11 12 12 12 12 12 12 12 11 11 11 11 11 10 10 10 9 9 9 8 8 8 7 7 7 7 7 7 7 7 7 7 7 6 6 6 6 6
9 9 9 9 9 9 9 10 10 10 11 11 12 12 12 12 12 12 12 12 11 11 11 11 10 10 10 9 9 9 8 8 8 8 7 7 7 7 7 7 7 7 6 6 6 6 6 6 6
9 9 9 9 9 9 10 10 10 10 11 12 12 12 12 12 12 12 12 12 12 11 11 11 10 10 10 9 9 9 9 8 8 8 8 7 7 7 7 7 7 7 6 7 6 6 6 6 6
9 9 9 9 10 10 10 11 11 11 11 11 12 12 12 12 12 12 12 12 12 12 11 11 10 10 10 9 9 9 9 8 8 8 8 8 7 7 7 7 6 6 6 6 6 6 6 6 6
10 10 10 10 10 10 10 11 11 12 12 12 12 12 12 12 12 12 12 12 12 12 11 11 11 10 10 9 9 9 8 8 8 8 8 7 7 7 7 7 7 6 6 6 6 6 6 6 6
9 10 10 10 10 10 11 11 12 13 12 12 12 12 12 12 13 13 12 12 12 12 11 11 11 10 10 9 9 9 9 8 8 8 8 8 7 7 7 7 7 6 6 6 6 5 5 5 5
9 9 10 9 10 11 11 12 12 13 13 13 13 13 13 13 13 13 13 12 12 12 11 11 11 10 10 9 9 9 8 8 8 7 7 7 7 7 7 7 7 6 6 6 5 5 5 5 5
9 9 9 10 10 10 11 12 12 12 13 13 13 13 13 13 13 13 13 12 12 11 11 11 11 10 10 9 9 8 8 8 7 7 7 7 7 7 7 6 6 6 6 6 5 5 5 5 4
9 9 9 9 10 10 11 12 12 12 13 13 13 13 13 13 13 13 12 12 11 11 11 10 10 10 9 9 8 8 8 8 7 7 7 7 7 6 6 6 6 6 5 5 5 5 5 4 4
9 9 9 9 10 10 11 11 12 12 12 13 13 12 12 12 12 12 12 12 11 11 10 10 10 9 9 8 8 8 8 8 7 7 7 6 6 6 6 6 6 5 5 5 5 5 5 5 4
9 9 9 9 9 10 10 11 12 12 12 12 12 12 12 12 12 12 11 11 11 10 10 10 9 9 8 8 8 8 8 8 7 7 7 6 6 6 6 6 6 5 5 5 5 5 5 5 4
9 9 9 9 9 9 10 10 12 12 12 12 12 12 12 12 12 11 11 11 10 10 9 9 9 8 8 8 8 8 8 8 8 7 7 6 6 6 6 6 6 6 6 5 5 5 5 4 4
9 9 9 8 7 7 10 10 13 13 12 12 12 12 11 12 12 11 11 11 10 10 10 9 9 8 8 8 8 8 8 8 8 7 7 7 6 6 6 6 6 6 6 6 5 5 5 4 4
9 9 9 9 5 8 9 11 13 12 12 12 12 12 12 12 12 11 11 11 10 10 10 10 9 9 9 9 8 8 8 8 8 7 7 7 6 6 6 6 6 6 6 6 5 5 5 4 4
8 9 9 9 7 7 11 12 13 13 13 12 12 12 12 12 11 11 11 11 10 10 10 9 9 9 8 8 8 8 8 8 8 8 7 7 6 6 6 6 6 6 6 6 5 5 5 5 4
8 9 9 9 6 8 9 11 14 14 13 12 12 12 12 12 11 11 11 11 11 10 10 10 9 9 9 8 8 8 8 8 8 8 7 7 7 6 6 6 6 5 5 5 5 5 5 5 5
9 8 9 9 9 6 6 12 14 14 13 13 12 12 12 12 12 11 11 11 11 10 10 10 10 9 8 8 8 8 8 8 8 7 7 7 6 6 6 6 6 5 5 5 5 5 5 5 5
9 9 9 10 9 8 8 13 14 14 13 13 12 12 12 12 11 11 11 11 11 10 10 10 9 9 9 8 8 8 8 7 7 7 7 7 6 6 5 5 5 5 5 5 5 5 5 5 4

GFSSGP_700_temp_327.txt.gz
Temp
9 9 9 10 10 9 9 8 8 8 7 8 8 8 7 7 7 7 8 8 8 8 8 8 8 8 8 8 8 8 8 8 8 8 8 8 8 7 7 7 7 7 7 7 7 7 7 7 7
9 9 9 9 9 9 9 8 8 8 8 8 8 8 8 8 8 8 8 8 8 8 8 8 8 8 8 8 8 8 8 8 8 8 8 8 8 8 7 7 7 7 7 7 7 7 7 7 7
8 9 9 9 9 9 8 8 8 8 8 8 8 8 8 8 9 9 9 9 9 9 9 9 9 8 8 8 8 8 8 8 8 8 8 8 8 8 8 8 7 7 7 7 7 7 7 7 7
8 9 9 9 9 9 8 8 8 8 8 8 8 8 8 9 9 9 9 9 9 9 9 9 9 9 9 8 8 8 8 8 8 8 8 8 8 8 8 8 8 7 7 7 7 7 7 7 7
8 8 8 8 8 8 8 8 8 9 9 9 8 8 9 9 9 9 10 10 10 10 10 9 9 9 9 9 9 8 8 8 8 8 8 8 8 8 8 8 8 7 7 7 7 7 7 7 7
8 8 8 8 8 8 8 8 8 8 8 8 8 9 9 10 10 10 10 10 10 10 10 10 10 9 9 9 9 9 8 8 8 8 8 8 7 7 7 7 7 7 7 7 7 7 7 7 7
8 8 8 8 8 8 8 8 8 8 8 8 8 9 10 10 10 10 10 10 10 10 10 10 10 10 9 9 9 9 8 8 8 8 8 8 8 7 7 7 7 7 7 7 7 7 7 7 7
8 8 8 8 8 8 8 8 8 8 8 9 9 10 10 10 10 11 11 11 11 10 10 10 10 10 10 9 9 9 8 8 8 8 8 7 7 8 8 8 7 7 7 7 7 7 7 7 7
8 8 8 8 8 8 8 8 8 8 9 9 10 10 10 11 11 11 11 11 11 11 11 10 10 10 10 9 9 9 9 8 8 8 8 7 7 7 7 7 7 7 7 7 7 7 7 7 7
8 8 8 8 8 8 8 8 9 9 9 10 10 11 11 11 11 11 11 11 11 11 11 11 10 10 10 9 9 9 8 8 8 8 7 7 7 7 7 7 7 7 7 7 7 7 7 7 7
8 8 8 8 8 8 8 9 9 9 10 10 11 11 11 12 12 12 11 11 11 11 11 11 10 10 10 10 9 9 9 8 8 8 8 7 7 7 7 7 7 7 7 7 7 7 7 7 6
8 8 8 8 8 8 9 9 9 10 10 10 11 12 12 12 12 12 12 12 12 11 11 11 11 10 10 10 9 9 9 8 8 8 8 8 8 7 7 7 7 7 7 7 7 7 7 7 7
8 9 9 9 9 9 9 9 9 10 11 11 12 12 12 12 12 12 12 12 12 12 11 11 11 10 10 10 9 9 9 9 8 8 8 8 8 7 7 7 7 7 7 7 7 7 7 7 7
9 9 9 9 9 9 9 10 10 10 11 12 12 12 12 12 12 12 12 12 12 12 12 11 11 10 10 10 9 9 9 9 8 8 8 8 8 7 7 7 7 7 7 7 7 6 6 6 6
9 9 9 9 9 9 9 10 10 11 11 12 12 12 12 13 12 13 13 12 12 12 11 11 11 10 10 10 9 9 9 9 9 8 8 8 8 7 7 7 7 7 7 7 7 7 6 6 6
9 9 9 9 10 10 10 11 11 11 11 12 12 13 13 13 13 13 13 12 12 12 12 11 11 11 10 10 10 9 9 9 9 8 8 8 8 8 7 7 7 7 7 7 7 6 6 6 6
9 10 10 10 10 10 10 11 12 12 12 12 12 13 13 13 13 13 13 13 12 12 12 11 11 11 10 10 9 9 9 9 8 8 8 8 8 8 8 7 7 7 7 7 7 7 6 6 6
9 9 10 10 10 11 11 11 12 13 13 13 13 13 13 13 13 13 13 13 12 12 12 12 11 11 10 10 9 9 9 8 8 8 8 8 8 8 8 7 7 7 7 7 6 6 6 6 6
9 9 10 10 10 11 11 12 12 13 14 13 13 13 14 13 13 13 13 13 13 12 12 12 11 11 10 10 9 9 8 8 8 8 8 8 8 7 7 7 7 7 6 6 6 6 6 5 6
9 9 10 10 10 10 11 12 12 13 13 13 13 13 13 13 13 13 13 13 12 12 12 11 11 11 10 10 9 9 8 8 8 8 8 8 7 7 7 6 6 6 6 6 6 5 5 5 5
9 9 9 9 10 11 11 12 12 12 12 13 13 13 13 13 13 13 12 12 12 12 11 11 11 10 10 9 9 9 8 8 8 8 8 8 7 7 7 6 6 6 6 5 5 5 5 5 5
9 9 9 9 9 10 11 12 12 12 12 12 12 13 13 13 13 13 12 12 12 12 11 11 10 10 10 9 9 8 8 8 8 7 8 7 7 7 7 7 6 6 6 6 5 5 5 5 5
9 9 9 9 9 10 10 11 12 12 12 12 12 13 13 13 13 12 12 12 12 11 11 10 10 9 9 9 9 8 8 8 8 7 7 7 7 7 7 7 6 6 6 6 6 6 5 5 5
8 9 9 9 9 9 10 10 13 13 13 12 12 13 13 13 12 12 12 12 12 11 11 10 10 9 9 9 9 9 8 8 8 8 7 7 7 7 6 7 7 6 6 6 6 6 6 6 5
8 9 8 8 8 8 9 10 13 13 12 12 12 12 12 12 12 12 12 12 11 11 11 10 10 9 9 9 9 9 9 9 8 8 8 7 7 6 6 7 7 6 6 6 6 6 6 6 6
8 8 9 9 7 8 9 11 14 13 12 12 12 12 12 12 12 12 12 11 11 11 11 10 10 9 9 9 9 9 9 9 8 8 8 8 7 6 6 6 6 6 6 6 6 6 6 6 6
8 8 9 9 7 7 10 12 13 13 13 13 12 12 12 12 12 12 12 12 11 11 11 10 10 10 9 9 9 9 9 9 9 8 8 8 7 7 7 6 6 6 6 6 6 6 6 6 6
8 8 8 9 6 8 9 11 15 14 14 13 13 13 12 12 12 12 12 11 11 11 11 11 10 10 10 9 9 9 9 9 8 8 8 8 8 7 7 6 6 6 6 6 6 6 5 6 5
8 8 8 9 9 7 8 13 15 15 14 14 13 13 12 12 12 12 12 11 11 11 11 11 10 10 10 9 9 9 9 8 8 8 8 8 7 7 7 7 6 6 6 6 6 5 5 5 5
9 8 9 9 9 8 8 14 15 15 14 13 13 13 12 12 12 12 12 11 11 11 11 11 10 10 10 9 9 9 8 8 8 7 7 7 7 7 7 6 6 6 6 5 5 5 5 5 5

GFSSGP_700_temp_333.txt.gz
Temp
9 9 9 10 9 11 12 10 9 8 8 9 9 8 7 7 6 8 9 9 9 9 9 9 9 9 9 9 9 9 9 8 8 8 8 8 8 8 8 7 7 7 8 8 8 8 8 8 8
9 9 9 9 11 13 12 10 9 9 9 9 9 8 7 8 8 9 9 9 9 9 9 9 9 9 9 9 9 9 9 9 8 8 8 8 8 8 8 8 7 7 7 7 8 8 8 8 8
9 9 9 10 11 13 12 9 9 10 10 9 8 9 8 8 9 9 9 10 10 10 10 10 10 9 9 9 9 9 9 9 9 9 8 8 8 8 8 8 8 8 8 8 8 8 8 8 8
8 8 9 10 12 10 10 8 9 10 9 9 9 7 9 9 10 10 10 10 10 10 10 10 10 10 10 9 9 9 9 9 9 9 8 8 8 8 8 8 7 7 8 8 8 8 8 8 8
8 8 10 11 11 9 9 9 9 9 9 9 9 7 10 10 10 10 10 10 10 10 10 10 10 10 10 9 9 9 9 9 9 9 9 8 8 8 8 8 8 8 8 8 8 8 8 8 8
8 9 11 12 11 9 8 9 9 9 9 9 8 9 10 10 10 10 10 10 10 10 10 10 10 10 10 9 9 9 9 9 9 9 9 9 9 9 8 8 8 8 8 8 7 8 8 8 8
8 9 10 11 11 9 8 9 8 7 8 7 9 7 10 11 11 11 10 10 10 10 10 10 10 10 10 10 9 9 9 9 9 9 9 9 9 9 9 9 9 8 8 8 8 8 8 8 8
7 8 10 10 10 10 8 9 9 8 7 9 9 8 10 11 11 11 11 10 10 10 10 10 10 10 10 10 9 9 9 9 9 9 9 9 9 9 9 9 9 9 8 9 9 8 8 8 7
8 9 10 10 9 9 8 8 9 9 9 9 10 11 11 11 11 11 11 11 10 10 10 10 10 10 10 10 9 9 9 9 9 9 9 9 9 9 9 9 8 8 8 8 8 8 8 8 8
7 9 10 9 8 8 8 8 7 9 9 10 10 11 11 11 11 11 11 11 11 11 10 10 10 10 10 10 9 9 9 9 9 9 9 9 9 9 9 9 8 8 8 8 8 8 8 8 8
8 9 8 8 8 8 8 9 9 9 8 9 9 11 11 11 12 12 11 11 11 11 11 11 10 10 10 10 10 9 9 9 9 9 9 9 9 9 9 8 8 8 8 8 8 8 8 8 8
8 8 8 8 9 9 8 8 9 10 9 11 11 12 12 12 12 12 12 12 12 11 11 11 11 11 10 10 10 10 10 9 9 9 9 9 9 9 8 8 9 8 9 8 8 8 8 8 8
8 8 8 9 9 9 9 9 10 10 11 11 12 12 12 12 12 12 12 12 12 12 12 11 11 11 11 10 10 10 10 9 9 9 9 9 9 9 8 8 8 8 8 8 8 8 8 8 8
9 9 9 9 9 9 9 10 11 11 12 12 12 12 13 13 13 13 12 12 12 12 12 12 11 11 11 11 10 10 9 9 9 9 9 8 8 8 8 9 8 8 8 8 8 8 8 8 7
9 9 9 9 9 9 10 11 12 12 12 12 13 13 13 13 13 13 13 13 12 12 12 11 11 11 11 11 10 10 10 9 9 9 9 9 9 9 8 8 8 8 8 8 8 7 7 7 7
9 9 9 10 10 10 10 11 11 12 12 13 13 13 13 13 13 13 13 13 12 12 12 12 11 11 11 11 10 10 10 10 9 9 9 9 9 8 8 8 8 8 8 8 8 7 7 7 7
9 12 11 10 10 10 11 11 11 12 12 13 13 13 13 13 13 13 13 13 13 12 12 12 12 11 11 11 10 10 10 10 9 9 9 8 8 8 8 8 7 7 7 7 7 7 7 7 7
12 12 11 10 10 11 11 12 12 13 13 13 13 13 13 13 13 13 13 13 13 12 12 12 12 11 11 11 10 10 10 9 9 9 8 8 8 8 8 7 7 7 7 7 7 7 7 6 6
10 9 10 10 11 11 12 12 13 13 13 13 14 13 13 13 14 13 13 13 13 13 12 12 12 12 11 11 10 10 9 9 9 9 8 8 8 8 8 8 8 8 7 7 7 7 6 6 6
10 9 11 10 11 11 12 13 13 13 14 14 14 14 14 14 14 13 13 13 13 13 12 12 12 11 11 11 10 10 9 9 9 9 9 9 9 9 8 8 8 8 7 7 7 7 6 6 6
9 9 9 9 10 11 12 14 14 14 14 14 14 14 14 14 14 14 13 13 13 12 12 12 12 11 11 11 10 10 9 9 9 9 9 9 9 9 9 8 8 8 7 7 7 6 6 6 6
9 9 10 10 9 12 11 15 14 13 14 14 14 14 14 14 14 13 13 13 13 12 12 12 12 11 11 10 10 9 9 9 9 9 9 9 9 9 9 8 8 8 7 7 6 6 6 6 6
8 9 10 10 9 9 11 11 15 13 14 14 14 14 14 14 14 14 13 13 13 13 12 12 12 12 11 10 10 9 9 9 9 9 9 9 9 9 9 9 8 8 7 7 7 6 6 6 6
9 9 9 9 8 11 13 12 16 14 15 14 14 14 14 14 14 14 13 13 13 12 12 12 12 11 11 10 10 10 9 9 9 9 9 9 9 9 9 8 8 8 8 7 7 6 6 6 6
8 8 12 12 11 14 11 11 15 14 15 14 14 14 14 14 14 13 13 13 13 13 12 12 12 11 11 11 10 10 10 9 9 9 9 9 9 8 8 8 8 8 7 7 7 6 6 6 6
9 8 12 13 15 15 11 11 14 14 15 15 14 14 14 14 14 14 13 13 13 13 12 12 12 11 11 11 10 10 10 9 9 9 9 9 9 8 8 8 8 7 7 7 6 6 6 6 6
7 8 9 9 10 11 14 13 14 15 15 15 15 14 14 14 14 14 13 13 13 13 12 12 12 11 11 11 10 10 10 9 9 9 9 9 9 9 8 8 7 7 7 6 6 6 6 6 5
8 8 9 9 11 13 16 15 17 16 16 15 15 15 14 14 14 14 13 13 13 12 12 12 12 11 11 11 10 10 10 9 9 9 9 9 9 9 9 8 8 7 7 6 6 6 6 5 5
7 7 8 9 10 14 16 17 15 16 16 16 16 15 14 14 14 13 13 13 12 12 12 12 11 11 11 10 10 10 10 9 9 9 9 9 9 9 9 8 8 8 7 7 6 5 5 5 4
7 7 8 10 11 10 10 13 15 15 16 15 15 14 14 14 14 13 13 13 13 12 12 12 11 11 10 10 10 10 9 9 9 9 9 9 9 9 9 8 8 7 7 6 6 5 5 4 4

GFSSGP_700_temp_336.txt.gz
Temp
9 10 10 10 10 11 11 10 10 9 9 10 9 8 8 8 8 8 9 9 10 10 10 10 9 9 9 9 9 9 8 8 8 8 8 8 8 8 8 8 8 8 8 8 8 8 8 8 9
9 9 10 10 10 12 11 10 9 10 10 9 9 8 7 9 8 9 10 10 10 10 10 10 10 9 9 9 9 9 9 9 8 8 8 8 8 8 8 8 8 8 8 8 8 8 8 9 9
9 9 10 10 11 11 11 9 10 10 10 10 9 9 9 9 10 10 10 10 10 10 10 10 10 10 10 10 9 9 9 9 8 8 8 8 8 8 8 8 8 8 8 8 8 8 8 8 9
9 9 10 10 11 11 10 9 9 10 10 10 9 10 9 10 11 10 10 11 11 10 10 10 10 10 9 10 10 10 9 9 9 9 9 8 8 8 8 8 8 8 8 8 8 8 8 8 8
8 9 9 11 12 11 9 9 9 9 9 10 9 9 10 10 10 11 10 11 11 11 10 10 10 10 10 10 10 9 9 9 9 9 9 9 9 8 8 8 8 8 8 8 8 8 8 8 8
8 9 10 11 12 10 9 9 9 8 9 9 10 10 10 10 10 10 11 11 10 10 10 10 10 10 10 10 10 10 10 10 9 9 9 9 9 9 9 9 8 8 8 8 8 8 8 8 8
9 8 10 11 11 10 9 9 8 8 9 10 10 7 10 11 11 11 11 11 11 11 11 10 10 10 10 10 10 10 10 10 10 10 10 9 9 9 9 9 9 9 9 9 8 9 8 8 8
8 8 9 10 11 10 9 9 9 9 8 9 9 7 10 11 11 11 11 11 11 11 11 11 11 11 11 10 10 10 10 10 10 10 10 10 10 9 9 9 9 9 9 9 9 9 9 9 9
8 8 9 10 10 9 9 9 9 9 10 10 10 11 11 11 11 11 11 11 11 11 11 11 11 11 11 10 10 10 10 10 10 10 10 10 9 9 9 9 10 9 9 9 9 9 9 9 9
8 8 9 10 9 9 8 9 8 9 9 10 10 11 12 11 11 11 11 11 11 11 11 11 11 11 11 11 10 10 10 10 10 10 9 9 10 9 9 9 9 9 9 9 9 9 9 9 9
8 8 8 9 9 9 8 9 9 9 8 9 11 11 12 12 12 12 12 12 12 11 11 11 11 11 11 11 10 10 10 10 10 10 10 10 10 9 9 9 9 9 9 9 9 9 9 9 9
8 8 8 8 9 9 9 8 8 10 8 9 11 13 12 12 12 12 12 12 12 12 12 11 11 11 11 11 11 10 10 10 10 10 10 10 10 10 9 9 9 9 9 9 9 9 9 9 9
8 8 9 9 9 9 9 9 9 10 10 11 12 12 12 12 13 12 12 12 12 12 12 12 11 11 11 11 11 11 10 10 10 10 10 10 10 10 9 9 9 9 9 9 9 8 8 8 8
8 9 9 9 9 9 9 9 10 11 11 12 12 12 13 13 13 13 13 13 13 13 12 12 12 11 11 11 11 10 10 10 10 10 10 9 9 9 9 9 9 8 8 8 8 8 8 8 8
9 9 9 9 9 10 9 11 12 12 12 13 13 13 13 13 13 13 13 13 13 13 13 12 12 11 11 11 11 10 10 10 10 10 10 9 9 9 8 8 8 8 8 8 8 8 7 7 7
9 9 8 10 10 10 10 10 11 12 12 13 13 13 13 13 13 13 13 13 13 13 12 12 12 12 11 11 11 11 10 10 10 10 9 9 9 8 8 8 8 8 7 7 7 7 7 7 7
10 10 11 10 10 11 10 10 11 12 13 13 13 14 14 13 14 13 13 13 13 13 13 12 12 12 12 11 11 11 11 10 10 9 9 9 9 9 9 8 8 8 8 8 7 7 7 7 7
10 11 11 11 11 11 11 12 11 12 12 13 13 14 14 14 14 14 14 13 13 13 13 13 12 12 12 12 11 11 11 10 10 10 9 9 9 9 9 9 9 8 8 8 8 8 7 7 7
10 10 10 11 10 11 12 13 13 12 13 13 13 14 14 14 14 14 14 13 13 13 13 13 12 12 12 11 11 11 10 10 10 10 10 9 9 9 8 8 8 8 8 8 8 7 7 7 7
10 9 10 11 11 11 12 13 14 14 14 14 14 14 14 14 14 14 14 14 14 13 13 13 12 12 12 11 11 11 10 10 10 10 9 9 9 9 9 9 8 8 8 7 7 7 7 7 7
9 9 10 10 10 11 12 14 15 15 15 14 14 14 14 14 14 14 14 14 14 13 13 13 12 12 12 11 11 11 10 10 10 10 10 10 9 9 9 9 9 8 8 8 8 7 7 7 6
8 9 9 10 10 11 10 11 14 15 15 15 15 14 14 14 14 14 14 14 14 13 13 13 12 12 12 11 11 11 10 10 10 10 10 9 9 9 9 9 9 9 8 8 8 7 7 7 6
8 9 9 10 10 9 12 10 15 15 15 15 15 15 14 14 14 14 14 14 13 13 13 13 12 12 12 11 11 11 10 10 10 10 10 10 10 9 9 9 9 9 8 8 8 7 7 7 7
9 9 9 9 9 9 12 12 14 15 16 15 15 15 15 15 14 14 14 14 13 13 13 13 12 12 12 11 11 11 10 10 10 10 10 10 10 9 9 9 9 9 8 8 8 7 7 7 7
9 8 9 8 7 9 12 11 15 14 14 15 16 15 15 15 15 15 14 14 14 13 13 13 13 12 12 11 11 11 10 10 10 10 10 10 10 10 10 9 9 8 8 7 7 7 7 6 6
8 9 9 9 9 11 11 12 15 15 14 15 15 15 15 15 15 14 14 14 13 13 13 13 12 12 12 11 11 11 11 10 10 10 10 10 10 10 10 10 9 9 8 7 7 7 6 6 6
7 8 9 8 11 10 13 14 14 14 15 15 15 15 15 15 15 14 14 14 14 13 13 13 12 12 12 11 11 11 11 10 10 10 10 9 10 10 10 9 9 9 8 8 7 7 7 6 6
7 8 8 8 7 9 14 15 16 16 16 15 16 15 15 15 15 14 14 14 14 13 13 13 12 12 12 11 11 11 10 10 10 10 9 9 10 10 10 9 9 9 8 7 7 7 6 6 6
7 7 8 9 10 9 9 14 15 16 16 16 16 15 15 15 15 14 14 14 13 13 13 12 12 12 12 11 11 11 10 10 10 9 9 9 9 10 10 9 9 9 8 8 7 7 6 6 6
7 8 8 9 10 10 10 13 15 15 15 16 15 15 15 15 14 14 14 13 13 13 12 12 12 12 11 11 11 10 10 10 10 9 9 9 9 10 10 9 9 9 9 8 7 7 6 6 6